This demonstration page uses our WeatherBlox Daily Observations layout. Learn more.

39.29038, -76.61219

Hourly Observations for October 8, 2019

Temp ( °F °C ) Dew Point ( °F °C ) Humidity (%) Winds ( mph kmh ) Pressure ( in mb ) Visibility ( mi km ) Precip ( " mm )
12:54 am 00:54 undefined 61 16.1 56 13.3 84 84 undefined N/A 30.19 1022 N/A 0 0
1:54 am 01:54 undefined 61 16.1 56 13.3 84 84 undefined N/A 30.19 1022 N/A 0 0
2:54 am 02:54 undefined 61 16.1 56 13.3 84 84 undefined N/A 30.18 1022 N/A 0 0
3:54 am 03:54 undefined 61 16.1 54 12.2 78 78 undefined N/A 30.16 1022 N/A 0 0
4:54 am 04:54 undefined 61 16.1 55 12.8 81 81 undefined N/A 30.19 1022 N/A 0 0
5:54 am 05:54 undefined 61 16.1 52 11.1 72 72 undefined N/A 30.2 1023 N/A 0 0
6:54 am 06:54 undefined 61 16.1 51 10.6 70 70 undefined N/A 30.21 1023 N/A 0 0
7:54 am 07:54 undefined 60 15.6 50 10 70 70 undefined N/A 30.21 1023 N/A 0 0
8:54 am 08:54 undefined 61 16.1 51 10.6 70 70 undefined N/A 30.22 1023 N/A 0 0
9:54 am 09:54 undefined 62 16.7 50 10 65 65 undefined N/A 30.23 1024 N/A 0 0
10:54 am 10:54 undefined 63 17.2 51 10.6 65 65 undefined N/A 30.24 1024 N/A 0 0
11:54 am 11:54 undefined 63 17.2 50 10 63 63 undefined N/A 30.23 1024 N/A 0 0
12:54 pm 12:54 undefined 65 18.3 47 8.3 52 52 undefined N/A 30.21 1023 N/A 0 0
1:54 pm 13:54 undefined 66 18.9 46 7.8 49 49 undefined N/A 30.19 1022 N/A 0 0
2:54 pm 14:54 undefined 67 19.4 45 7.2 45 45 undefined N/A 30.17 1022 N/A 0 0
3:54 pm 15:54 undefined 68 20 45 7.2 44 44 undefined N/A 30.16 1022 N/A 0 0
4:54 pm 16:54 undefined 68 20 46 7.8 45 45 undefined N/A 30.16 1022 N/A 0 0
5:54 pm 17:54 undefined 68 20 46 7.8 45 45 undefined N/A 30.17 1022 N/A 0 0
6:54 pm 18:54 undefined 67 19.4 46 7.8 47 47 undefined N/A 30.18 1022 N/A 0 0
7:54 pm 19:54 undefined 66 18.9 47 8.3 50 50 undefined N/A 30.19 1022 N/A 0 0
8:54 pm 20:54 undefined 65 18.3 46 7.8 51 51 undefined N/A 30.21 1023 N/A 0 0
9:54 pm 21:54 undefined 64 17.8 45 7.2 50 50 undefined N/A 30.2 1023 N/A 0 0
10:54 pm 22:54 undefined 63 17.2 44 6.7 50 50 undefined N/A 30.2 1023 N/A 0 0
11:54 pm 23:54 undefined 63 17.2 43 6.1 48 48 undefined N/A 30.21 1023 N/A 0 0

Powered by AerisWeather